Regional Weather Roundup
Issued by NWS

Home | Current Version | Previous Version | Text Only | Print | Product List | Glossary Off
Versions: 1 2 3 4 5 6 7 8 9 10 11 12 13 14 15 16 17 18 19 20 21 22 23 24 25 26 27 28 29 30 31 32 33 34 35 36 37 38 39 40 41 42 43 44 45 46 47 48 49 50

000
ASUS45 KSLC 241810
RWRUT

UTAH REGIONAL WEATHER ROUNDUP
NATIONAL WEATHER SERVICE SALT LAKE CITY UT
1100 AM MST WED DEC 24 2014

UTZ001>011-023>025-241900-

NORTHERN UTAH

CITY           SKY/WX    TMP DP  RH WIND       PRES   REMARKS
BRIGHAM CITY   PTSUNNY   34  19  54 W3        30.00F
HILL AFB       MOSUNNY   31  15  51 E13       29.98F WCI  21
LOGAN          MOSUNNY   30  22  72 W5        29.98F WCI  25
OGDEN          PTSUNNY   34  16  47 SE13      29.98F WCI  25
PROVO AIRPORT  NOT AVBL
SALT LAKE CITY PTSUNNY   36  20  52 SE15      30.00F WCI  27
VERNAL         SUNNY     28  13  53 SE6       30.10F WCI  22
WENDOVER       CLOUDY    28  18  64 E3        29.99F
HEBER CITY     SUNNY     27  18  69 CALM      30.06F
WEST JORDAN    SUNNY     34  25  69 S22       30.01F WCI  22

$$

UTZ012>022-026-027-241900-

SOUTHERN/CENTRAL UTAH

CITY           SKY/WX    TMP DP  RH WIND       PRES   REMARKS
BLANDING       SUNNY     32  11  42 S7        30.22F WCI  26
BRYCE CANYON   SUNNY     34  13  41 S7        30.10F WCI  28
CEDAR CITY     PTSUNNY   35  15  44 SE5       30.08F WCI  31
DELTA          PTSUNNY   32  19  58 CALM      30.05F
MILFORD        PTSUNNY   34  15  46 SW24      30.05F WCI  21
MOAB/CYNLANDS  SUNNY     32  14  47 E6        30.17F WCI  26
PRICE          SUNNY     30  11  45 SE6       30.12F WCI  24
ST GEORGE      CLEAR     37  14  38 SW3       30.20F
KANAB          SUNNY     37  14  38 S3        30.19F

$$

REGIONAL REPORTS     COLORADO/ARIZONA

CITY           SKY/WX    TMP DP  RH WIND       PRES   REMARKS
CRAIG, CO      MOSUNNY   22   8  55 E10       30.05F WCI  11
GRAND JUNCTION SUNNY     27   9  46 SE3       30.17F
RIFLE          SUNNY     21   8  57 CALM      30.15F
MONTROSE       SUNNY     25   8  48 CALM      30.15F
CORTEZ         SUNNY     32   7  35 VRB3      30.14F
PAGE, AZ       SUNNY     38  16  40 VRB3      30.17F
GRAND CANYON   SUNNY     43  10  26 CALM      30.16F
KINGMAN        SUNNY     51  12  21 N5        30.14F
FLAGSTAFF      SUNNY     42   8  24 CALM      30.16F

$$

REGIONAL REPORTS    NEVADA/IDAHO/WYOMING

CITY           SKY/WX    TMP DP  RH WIND       PRES   REMARKS
LAS VEGAS, NV  CLOUDY    50  22  33 S3        30.11F
ELY            CLOUDY    36  24  62 NE6       30.02F WCI  31
ELKO           CLOUDY    31  28  89 CALM      29.91F
POCATELLO, ID  MOSUNNY   39  17  41 S20G30    29.86F WCI  29
BURLEY         CLOUDY    41  20  43 S24G41    29.82F
EVANSTON, WY   MOSUNNY   26  14  60 SW14      29.96F WCI  14
ROCK SPRINGS   CLOUDY    30  22  72 SW17      29.96F WCI  18
KEMMERER       SUNNY     28  14  54 SW5       29.95F WCI  23

$$



USA.gov is the U.S. government's official web portal to all federal, state and local government web resources and services.